Miscellaneous Local Product
Issued by NWS North Platte, NE

Home | Current Version | Previous Version | Text Only | Print | Product List | Glossary On
Versions: 1 2 3 4 5 6 7 8 9 10 11 12 13 14 15 16 17 18 19 20 21 22 23 24 25 26 27 28 29 30 31 32 33 34 35 36 37 38 39 40 41 42 43 44 45 46 47 48 49 50
000
AXUS43 KLBF 250310
MISLBF


WESTERN AND NORTH CENTRAL NEBRASKA HOURLY WEATHER ROUNDUP
NATIONAL WEATHER SERVICE NORTH PLATTE NE
1000 PM CDT FRI OCT 24 2014

***STATIONS NOT REPORTING VARIABLES SUCH AS SKY/WEATHER OR
PRESSURE ARE PROVIDED BY THE NEBRASKA DEPARTMENT OF
ROADS...RAWS...AND APRS NETWORKS...AND ARE NOT UNDER
NATIONAL WEATHER SERVICE QUALITY CONTROL***

...OBSERVATIONS IN AND NEAR THE EASTERN PANHANDLE OF NEBRASKA...

CITY           SKY/WX    TMP DP  RH WIND       PRES   REMARKS
PINE RIDGE     CLEAR     45  37  73 E7        30.08R
CHADRON        CLEAR     46  36  68 CALM      30.08R
ALLIANCE       CLEAR     45  35  68 N5        30.08R
SIDNEY         CLEAR     48  35  60 SW10      30.13R
WHITECLAY        N/A     40  33  74 CALM        N/A
RUSHVILLE        N/A     48  32  54 NE9         N/A
CRESCENT LAKE    N/A     58  31  35 CALM        N/A
LISCO            N/A     53  29  40 W5          N/A
BIG SPRINGS      N/A     62  37  39 CALM        N/A
LEWELLEN         N/A     50  34  53 CALM        N/A
$$

...OBSERVATIONS IN NORTH CENTRAL NEBRASKA...

CITY           SKY/WX    TMP DP  RH WIND       PRES   REMARKS
VALENTINE      CLEAR     51  35  54 CALM      30.04R
THEDFORD       CLEAR     52  36  53 CALM      30.05R
AINSWORTH      CLEAR     52  37  56 E3        30.04R
O`NEILL        CLEAR     58  39  49 CALM      30.03S
ORD            CLEAR     46  40  79 CALM      30.02R
BROKEN BOW     CLEAR     48  40  73 N5        30.04R
BROWNLEE         N/A     67  25  20 E6          N/A
SPRINGVIEW       N/A     47  36  66 CALM        N/A
BREWSTER         N/A     49  39  68 CALM        N/A
ROSE             N/A     65  40  39 E5          N/A
NEWPORT          N/A     47  38  71 CALM        N/A
SARGENT          N/A     50  42  73 CALM        N/A
COMSTOCK         N/A     56  44  64 CALM        N/A
CHAMBERS         N/A     50  36  58 CALM        N/A
EWING            N/A     53  41  64 CALM        N/A
$$

...OBSERVATIONS IN SOUTHWEST NEBRASKA AND FAR NORTHEAST COLORADO...

CITY           SKY/WX    TMP DP  RH WIND       PRES   REMARKS
WRAY           FAIR      59  29  32 CALM      30.10R
HOLYOKE        FAIR      57  36  44 SW3       30.10R
IMPERIAL       CLEAR     59  35  40 SW5       30.07R
OGALLALA       CLEAR     48  37  63 CALM      30.06R
NORTH PLATTE   CLEAR     51  41  68 SW6       30.05R
MCCOOK         CLEAR     58  36  43 SW10      30.04R
LEXINGTON      CLEAR     53  41  63 CALM      30.04R
PAXTON           N/A     54  36  51 CALM        N/A
SUTHERLAND       N/A     51  35  53 CALM        N/A
BRADY            N/A     53  38  58 CALM        N/A
GOTHENBURG       N/A     65  35  33 CALM        N/A
CALLAWAY         N/A     49  41  74 CALM        N/A
$$

...SOME WEATHER OBSERVATIONS FROM AROUND THE REGION...

CITY           SKY/WX    TMP DP  RH WIND       PRES   REMARKS
DENVER         CLEAR     56  27  32 S13       30.19S
LARAMIE        CLEAR     52  21  29 SE5       30.31R
CHEYENNE       CLEAR     56  28  34 W13       30.23S
SCOTTSBLUFF    CLEAR     55  32  41 SW5       30.09R
RAPID CITY     CLEAR     46  35  65 NW10      30.11R
PIERRE         PTCLDY    56  39  53 N9        30.02R
WINNER         FAIR      58  31  35 MISG      30.03R
SIOUX FALLS    CLEAR     54  43  66 S3        29.96S
OMAHA          CLEAR     57  55  93 CALM      29.99R
GRAND ISLAND   CLEAR     54  46  74 CALM      30.02R
KANSAS CITY    MOCLDY    64  61  90 SW8       29.98R
WICHITA        CLEAR     64  58  80 SW7       30.02R
HAYS           CLEAR     63  48  59 SW6       30.02R
LIBERAL        CLEAR     61  45  55 S9        30.09S
GOODLAND       CLEAR     57  33  40 S8        30.11R
$$



USA.gov is the U.S. government's official web portal to all federal, state and local government web resources and services.